VOZ1602 YPAD-YMHB

Flight info

Callsign VOZ1602
Flight time 1h 33m
Altitude 37000
Route AD V255 BENDO Y218 GRACY T234 URBEN Y557 MORGO V33 TASUM
Aircraft B738/M-SDE2E3FGHIRWXY/LB1

Departure

Time 2026-05-01 11:28
Airport Adelaide International Airport (YPAD)

Arrival

Time 2026-05-01 13:01
Airport Hobart International Airport (YMHB)
Time Latitude Longitude Altitude Speed Heading
2026-05-01 10:45 -34.93831 138.53995 26 ft 0 kts 320°
2026-05-01 11:12 -34.93837 138.54001 31 ft 4 kts 320°
2026-05-01 11:12 -34.93858 138.54022 32 ft 4 kts 317°
2026-05-01 11:12 -34.93875 138.54046 31 ft 4 kts 297°
2026-05-01 11:13 -34.93882 138.54075 31 ft 4 kts 255°
2026-05-01 11:13 -34.93877 138.54088 31 ft 1 kts 230°
2026-05-01 11:17 -34.93893 138.54065 27 ft 10 kts 230°
2026-05-01 11:17 -34.93943 138.53990 25 ft 12 kts 230°
2026-05-01 11:18 -34.93996 138.53915 26 ft 11 kts 230°
2026-05-01 11:18 -34.94047 138.53841 27 ft 11 kts 230°
2026-05-01 11:18 -34.94095 138.53769 26 ft 11 kts 230°
2026-05-01 11:18 -34.94143 138.53700 24 ft 11 kts 229°
2026-05-01 11:19 -34.94195 138.53641 27 ft 10 kts 198°
2026-05-01 11:19 -34.94211 138.53639 23 ft 0 kts 176°
2026-05-01 11:20 -34.94231 138.53644 25 ft 8 kts 161°
2026-05-01 11:20 -34.94320 138.53613 22 ft 19 kts 227°
2026-05-01 11:21 -34.94404 138.53488 21 ft 19 kts 230°
2026-05-01 11:21 -34.94482 138.53375 23 ft 17 kts 230°
2026-05-01 11:21 -34.94517 138.53248 22 ft 16 kts 280°
2026-05-01 11:21 -34.94465 138.53132 26 ft 15 kts 303°
2026-05-01 11:22 -34.94455 138.53010 22 ft 15 kts 245°
2026-05-01 11:22 -34.94527 138.52926 23 ft 14 kts 217°
2026-05-01 11:22 -34.94607 138.52850 20 ft 15 kts 218°
2026-05-01 11:22 -34.94687 138.52774 20 ft 14 kts 218°
2026-05-01 11:23 -34.94764 138.52701 19 ft 14 kts 218°
2026-05-01 11:23 -34.94839 138.52632 19 ft 13 kts 218°
2026-05-01 11:23 -34.94910 138.52565 19 ft 13 kts 218°
2026-05-01 11:23 -34.94979 138.52499 19 ft 12 kts 218°
2026-05-01 11:24 -34.95046 138.52436 20 ft 12 kts 216°
2026-05-01 11:24 -34.95113 138.52374 19 ft 12 kts 218°
2026-05-01 11:24 -34.95283 138.52208 19 ft 19 kts 224°
2026-05-01 11:25 -34.95369 138.52087 19 ft 19 kts 230°
2026-05-01 11:25 -34.95529 138.51853 22 ft 17 kts 230°
2026-05-01 11:25 -34.95606 138.51742 22 ft 17 kts 230°
2026-05-01 11:26 -34.95687 138.51647 21 ft 16 kts 204°
2026-05-01 11:26 -34.95762 138.51650 20 ft 0 kts 148°
2026-05-01 11:27 -34.95779 138.51668 20 ft 10 kts 132°
2026-05-01 11:27 -34.95808 138.51754 18 ft 11 kts 89°
2026-05-01 11:27 -34.95773 138.51838 22 ft 11 kts 50°
2026-05-01 11:27 -34.95682 138.51971 21 ft 48 kts 50°
2026-05-01 11:28 -34.95314 138.52503 19 ft 115 kts 50°
2026-05-01 11:28 -34.94694 138.53440 127 ft 161 kts 51°
2026-05-01 11:28 -34.94036 138.54483 1012 ft 150 kts 47°
2026-05-01 11:29 -34.92682 138.56498 2442 ft 168 kts 47°
2026-05-01 11:29 -34.92285 138.57992 2811 ft 211 kts 84°
2026-05-01 11:29 -34.93710 138.61717 3334 ft 272 kts 115°
2026-05-01 11:30 -34.94694 138.63752 3897 ft 284 kts 115°
2026-05-01 11:30 -34.95674 138.65852 4827 ft 285 kts 114°
2026-05-01 11:30 -34.96631 138.67977 5781 ft 287 kts 114°
2026-05-01 11:30 -34.97575 138.70135 6644 ft 289 kts 113°
2026-05-01 11:31 -34.98511 138.72318 7465 ft 292 kts 113°
2026-05-01 11:31 -34.99452 138.74538 8273 ft 296 kts 112°
2026-05-01 11:31 -35.00395 138.76782 9094 ft 299 kts 112°
2026-05-01 11:31 -35.01346 138.79058 9918 ft 303 kts 112°
2026-05-01 11:32 -35.02315 138.81384 10472 ft 316 kts 112°
2026-05-01 11:32 -35.03347 138.83875 10654 ft 341 kts 112°
2026-05-01 11:32 -35.04453 138.86538 10986 ft 359 kts 113°
2026-05-01 11:32 -35.05581 138.89250 11604 ft 366 kts 113°
2026-05-01 11:33 -35.06681 138.92065 12327 ft 369 kts 109°
2026-05-01 11:33 -35.07624 138.94995 13035 ft 372 kts 106°
2026-05-01 11:33 -35.08507 138.97988 13709 ft 377 kts 105°
2026-05-01 11:33 -35.09387 139.01026 14321 ft 382 kts 105°
2026-05-01 11:34 -35.10284 139.04103 14940 ft 387 kts 105°
2026-05-01 11:34 -35.11201 139.07210 15573 ft 391 kts 105°
2026-05-01 11:34 -35.12135 139.10338 16210 ft 394 kts 106°
2026-05-01 11:34 -35.13083 139.13496 16841 ft 397 kts 106°
2026-05-01 11:35 -35.14041 139.16678 17448 ft 401 kts 106°
2026-05-01 11:35 -35.15011 139.19894 18072 ft 405 kts 106°
2026-05-01 11:35 -35.15988 139.23138 18625 ft 409 kts 106°
2026-05-01 11:35 -35.16974 139.26414 19150 ft 413 kts 106°
2026-05-01 11:36 -35.17968 139.29720 19675 ft 416 kts 106°
2026-05-01 11:36 -35.18970 139.33058 20194 ft 420 kts 106°
2026-05-01 11:36 -35.19979 139.36425 20706 ft 424 kts 106°
2026-05-01 11:36 -35.20996 139.39823 21205 ft 427 kts 107°
2026-05-01 11:37 -35.22022 139.43249 21688 ft 432 kts 107°
2026-05-01 11:37 -35.23056 139.46713 22131 ft 436 kts 107°
2026-05-01 11:37 -35.24128 139.50201 22580 ft 441 kts 111°
2026-05-01 11:37 -35.25755 139.53424 23003 ft 450 kts 127°
2026-05-01 11:38 -35.27767 139.56380 23515 ft 453 kts 128°
2026-05-01 11:38 -35.29820 139.59320 23896 ft 457 kts 129°
2026-05-01 11:38 -35.31897 139.62287 24024 ft 459 kts 129°
2026-05-01 11:38 -35.33962 139.65258 24025 ft 458 kts 128°
2026-05-01 11:39 -35.36011 139.68238 24030 ft 457 kts 128°
2026-05-01 11:39 -35.38053 139.71231 24036 ft 457 kts 128°
2026-05-01 11:39 -35.40083 139.74226 24039 ft 457 kts 128°
2026-05-01 11:39 -35.42110 139.77226 24035 ft 457 kts 128°
2026-05-01 11:40 -35.44140 139.80238 24056 ft 460 kts 128°
2026-05-01 11:40 -35.46187 139.83278 24348 ft 464 kts 128°
2026-05-01 11:40 -35.48239 139.86328 24864 ft 462 kts 128°
2026-05-01 11:40 -35.50286 139.89371 25327 ft 463 kts 128°
2026-05-01 11:41 -35.52341 139.92429 25677 ft 466 kts 128°
2026-05-01 11:41 -35.54411 139.95512 26018 ft 470 kts 128°
2026-05-01 11:41 -35.56469 139.98580 26354 ft 473 kts 128°
2026-05-01 11:41 -35.58565 140.01706 26698 ft 476 kts 128°
2026-05-01 11:42 -35.60675 140.04856 27057 ft 478 kts 128°
2026-05-01 11:42 -35.62794 140.08021 27383 ft 481 kts 128°
2026-05-01 11:42 -35.64924 140.11207 27702 ft 484 kts 128°
2026-05-01 11:42 -35.67066 140.14414 28021 ft 487 kts 128°
2026-05-01 11:43 -35.69216 140.17636 28347 ft 489 kts 128°
2026-05-01 11:43 -35.71384 140.20887 28649 ft 492 kts 128°
2026-05-01 11:43 -35.73557 140.24149 28956 ft 494 kts 128°
2026-05-01 11:44 -35.77940 140.30738 29536 ft 500 kts 128°
2026-05-01 11:44 -35.80145 140.34058 29823 ft 502 kts 128°
2026-05-01 11:44 -35.82357 140.37391 30111 ft 505 kts 128°
2026-05-01 11:44 -35.84584 140.40750 30358 ft 506 kts 128°
2026-05-01 11:45 -35.86816 140.44120 30626 ft 507 kts 128°
2026-05-01 11:45 -35.89045 140.47489 30940 ft 507 kts 128°
2026-05-01 11:45 -35.91269 140.50853 31326 ft 505 kts 128°
2026-05-01 11:45 -35.93480 140.54200 31753 ft 502 kts 128°
2026-05-01 11:46 -35.95680 140.57535 32124 ft 500 kts 128°
2026-05-01 11:46 -35.97873 140.60863 32436 ft 500 kts 128°
2026-05-01 11:46 -36.00061 140.64186 32752 ft 499 kts 128°
2026-05-01 11:46 -36.02251 140.67516 33095 ft 498 kts 128°
2026-05-01 11:47 -36.04428 140.70830 33451 ft 496 kts 128°
2026-05-01 11:47 -36.06598 140.74136 33777 ft 495 kts 128°
2026-05-01 11:47 -36.08767 140.77443 34082 ft 495 kts 128°
2026-05-01 11:47 -36.10932 140.80749 34326 ft 494 kts 128°
2026-05-01 11:48 -36.13091 140.84048 34571 ft 494 kts 128°
2026-05-01 11:48 -36.15251 140.87353 34786 ft 494 kts 128°
2026-05-01 11:48 -36.17409 140.90655 35005 ft 494 kts 128°
2026-05-01 11:48 -36.19571 140.93967 35235 ft 494 kts 128°
2026-05-01 11:49 -36.21856 140.97133 35434 ft 494 kts 137°
2026-05-01 11:49 -36.24503 140.99850 35647 ft 494 kts 145°
2026-05-01 11:49 -36.27406 141.02103 35868 ft 492 kts 154°
2026-05-01 11:49 -36.30522 141.03835 36060 ft 491 kts 159°
2026-05-01 11:50 -36.33687 141.05431 36256 ft 491 kts 160°
2026-05-01 11:50 -36.36858 141.06995 36456 ft 491 kts 160°
2026-05-01 11:50 -36.40029 141.08564 36667 ft 490 kts 160°
2026-05-01 11:50 -36.43195 141.10150 36860 ft 491 kts 160°
2026-05-01 11:51 -36.46354 141.11754 37049 ft 491 kts 160°
2026-05-01 11:51 -36.49515 141.13375 37091 ft 493 kts 159°
2026-05-01 11:51 -36.55857 141.16653 37105 ft 492 kts 159°
2026-05-01 11:52 -36.62152 141.19918 37093 ft 489 kts 159°
2026-05-01 11:52 -36.68412 141.23167 37097 ft 486 kts 159°
2026-05-01 11:53 -36.74642 141.26404 37102 ft 484 kts 159°
2026-05-01 11:53 -36.80855 141.29636 37102 ft 484 kts 159°
2026-05-01 11:54 -36.87028 141.32853 37103 ft 485 kts 159°
2026-05-01 11:54 -36.93257 141.36106 37111 ft 486 kts 159°
2026-05-01 11:55 -36.99514 141.39379 37112 ft 488 kts 159°
2026-05-01 11:55 -37.05796 141.42672 37111 ft 490 kts 159°
2026-05-01 11:56 -37.12104 141.45984 37109 ft 492 kts 159°
2026-05-01 11:56 -37.18429 141.49311 37108 ft 494 kts 159°
2026-05-01 11:57 -37.23695 141.52086 37111 ft 494 kts 159°
2026-05-01 11:57 -37.31114 141.56002 37102 ft 495 kts 159°
2026-05-01 11:58 -37.37236 141.59933 37110 ft 496 kts 146°
2026-05-01 11:59 -37.45624 141.67521 37119 ft 495 kts 144°
2026-05-01 11:59 -37.51193 141.72602 37113 ft 494 kts 144°
2026-05-01 12:00 -37.59570 141.80141 37115 ft 493 kts 144°
2026-05-01 12:01 -37.67934 141.87653 37109 ft 492 kts 144°
2026-05-01 12:01 -37.73499 141.92665 37124 ft 491 kts 144°
2026-05-01 12:02 -37.79062 141.97688 37121 ft 491 kts 144°
2026-05-01 12:02 -37.84621 142.02718 37119 ft 491 kts 144°
2026-05-01 12:03 -37.90179 142.07755 37124 ft 491 kts 144°
2026-05-01 12:03 -37.95731 142.12797 37121 ft 491 kts 144°
2026-05-01 12:04 -38.01246 142.17814 37122 ft 491 kts 144°
2026-05-01 12:04 -38.06787 142.22865 37121 ft 491 kts 144°
2026-05-01 12:05 -38.12330 142.27928 37122 ft 490 kts 144°
2026-05-01 12:05 -38.19733 142.34704 37123 ft 490 kts 144°
2026-05-01 12:06 -38.25251 142.39766 37120 ft 489 kts 144°
2026-05-01 12:06 -38.30774 142.44842 37129 ft 489 kts 143°
2026-05-01 12:07 -38.36248 142.49883 37129 ft 488 kts 143°
2026-05-01 12:07 -38.41788 142.54994 37126 ft 488 kts 143°
2026-05-01 12:08 -38.47249 142.60043 37127 ft 488 kts 143°
2026-05-01 12:08 -38.52736 142.65125 37127 ft 487 kts 143°
2026-05-01 12:09 -38.58219 142.70213 37134 ft 487 kts 143°
2026-05-01 12:09 -38.63696 142.75306 37138 ft 486 kts 143°
2026-05-01 12:10 -38.71896 142.82949 37137 ft 486 kts 143°
2026-05-01 12:11 -38.80084 142.90603 37134 ft 486 kts 143°
2026-05-01 12:11 -38.85540 142.95717 37139 ft 486 kts 143°
2026-05-01 12:12 -38.90987 143.00840 37138 ft 486 kts 142°
2026-05-01 12:12 -38.96279 143.06231 37143 ft 486 kts 140°
2026-05-01 12:13 -39.01491 143.11762 37141 ft 486 kts 140°
2026-05-01 12:13 -39.06717 143.17285 37141 ft 486 kts 140°
2026-05-01 12:14 -39.11962 143.22787 37139 ft 487 kts 140°
2026-05-01 12:14 -39.17227 143.28300 37144 ft 487 kts 140°
2026-05-01 12:15 -39.22489 143.33820 37144 ft 488 kts 140°
2026-05-01 12:15 -39.27751 143.39353 37146 ft 488 kts 140°
2026-05-01 12:16 -39.33016 143.44901 37143 ft 489 kts 140°
2026-05-01 12:16 -39.38278 143.50458 37146 ft 489 kts 140°
2026-05-01 12:17 -39.43537 143.56024 37146 ft 489 kts 140°
2026-05-01 12:17 -39.48798 143.61602 37152 ft 489 kts 140°
2026-05-01 12:18 -39.54054 143.67185 37150 ft 489 kts 140°
2026-05-01 12:18 -39.59307 143.72778 37152 ft 489 kts 140°
2026-05-01 12:19 -39.64555 143.78376 37154 ft 489 kts 140°
2026-05-01 12:19 -39.69806 143.83989 37159 ft 488 kts 140°
2026-05-01 12:20 -39.75044 143.89600 37165 ft 489 kts 140°
2026-05-01 12:20 -39.80289 143.95229 37164 ft 489 kts 140°
2026-05-01 12:21 -39.85524 144.00859 37162 ft 489 kts 140°
2026-05-01 12:21 -39.90765 144.06507 37173 ft 489 kts 140°
2026-05-01 12:22 -39.96003 144.12164 37170 ft 489 kts 140°
2026-05-01 12:22 -40.01240 144.17830 37168 ft 489 kts 140°
2026-05-01 12:23 -40.06474 144.23506 37173 ft 489 kts 140°
2026-05-01 12:23 -40.11712 144.29198 37180 ft 490 kts 140°
2026-05-01 12:24 -40.16907 144.34855 37173 ft 490 kts 140°
2026-05-01 12:24 -40.22141 144.40565 37174 ft 490 kts 140°
2026-05-01 12:25 -40.29994 144.49156 37182 ft 490 kts 140°
2026-05-01 12:26 -40.35220 144.54889 37179 ft 491 kts 140°
2026-05-01 12:26 -40.43068 144.63519 37186 ft 491 kts 140°
2026-05-01 12:27 -40.50907 144.72167 37194 ft 491 kts 140°
2026-05-01 12:28 -40.58742 144.80837 37191 ft 491 kts 140°
2026-05-01 12:29 -40.66558 144.89515 37196 ft 490 kts 140°
2026-05-01 12:29 -40.74361 144.98207 37203 ft 489 kts 140°
2026-05-01 12:30 -40.82153 145.06912 37207 ft 489 kts 140°
2026-05-01 12:31 -40.87291 145.12702 37215 ft 489 kts 139°
2026-05-01 12:31 -40.92441 145.18569 37222 ft 489 kts 139°
2026-05-01 12:32 -40.97583 145.24444 37220 ft 489 kts 139°
2026-05-01 12:32 -41.02729 145.30328 37232 ft 489 kts 139°
2026-05-01 12:33 -41.07734 145.36060 37236 ft 489 kts 139°
2026-05-01 12:33 -41.12876 145.41960 37244 ft 489 kts 139°
2026-05-01 12:34 -41.18016 145.47870 37240 ft 489 kts 139°
2026-05-01 12:34 -41.23152 145.53789 37114 ft 491 kts 139°
2026-05-01 12:35 -41.25750 145.56788 36571 ft 495 kts 139°
2026-05-01 12:35 -41.28340 145.59781 36008 ft 493 kts 139°
2026-05-01 12:35 -41.30929 145.62777 35380 ft 494 kts 139°
2026-05-01 12:35 -41.33522 145.65780 34755 ft 494 kts 139°
2026-05-01 12:36 -41.36114 145.68785 34094 ft 496 kts 139°
2026-05-01 12:36 -41.38703 145.71790 33607 ft 491 kts 139°
2026-05-01 12:36 -41.41267 145.74770 33100 ft 488 kts 139°
2026-05-01 12:36 -41.43814 145.77733 32626 ft 484 kts 139°
2026-05-01 12:37 -41.46331 145.80664 32162 ft 480 kts 139°
2026-05-01 12:37 -41.48839 145.83587 31707 ft 476 kts 139°
2026-05-01 12:37 -41.51322 145.86485 31258 ft 473 kts 139°
2026-05-01 12:37 -41.53788 145.89365 30814 ft 470 kts 139°
2026-05-01 12:38 -41.56239 145.92232 30365 ft 467 kts 138°
2026-05-01 12:38 -41.58671 145.95079 29845 ft 464 kts 138°
2026-05-01 12:38 -41.61089 145.97913 29348 ft 460 kts 138°
2026-05-01 12:38 -41.63449 146.00681 28892 ft 455 kts 138°
2026-05-01 12:39 -41.65820 146.03465 28426 ft 451 kts 138°
2026-05-01 12:39 -41.68167 146.06225 27968 ft 448 kts 138°
2026-05-01 12:39 -41.70497 146.08967 27517 ft 444 kts 138°
2026-05-01 12:39 -41.72808 146.11688 27063 ft 441 kts 138°
2026-05-01 12:40 -41.75104 146.14396 26612 ft 438 kts 137°
2026-05-01 12:40 -41.77378 146.17081 26171 ft 435 kts 137°
2026-05-01 12:40 -41.79636 146.19749 25729 ft 432 kts 137°
2026-05-01 12:40 -41.81882 146.22405 25296 ft 429 kts 137°
2026-05-01 12:41 -41.84111 146.25043 24863 ft 426 kts 137°
2026-05-01 12:41 -41.86294 146.27712 24423 ft 423 kts 132°
2026-05-01 12:41 -41.88170 146.30725 23993 ft 419 kts 123°
2026-05-01 12:41 -41.89646 146.34090 23515 ft 413 kts 115°
2026-05-01 12:42 -41.90941 146.37518 23040 ft 410 kts 114°
2026-05-01 12:42 -41.92202 146.40930 22585 ft 406 kts 114°
2026-05-01 12:42 -41.93453 146.44315 22149 ft 403 kts 114°
2026-05-01 12:42 -41.94700 146.47669 21723 ft 399 kts 114°
2026-05-01 12:43 -41.95943 146.50987 21299 ft 396 kts 114°
2026-05-01 12:43 -41.97182 146.54285 20892 ft 393 kts 114°
2026-05-01 12:43 -41.98414 146.57556 20430 ft 393 kts 114°
2026-05-01 12:43 -41.99646 146.60827 19942 ft 392 kts 114°
2026-05-01 12:44 -42.00880 146.64105 19473 ft 392 kts 114°
2026-05-01 12:44 -42.02109 146.67371 19000 ft 391 kts 114°
2026-05-01 12:44 -42.04544 146.73854 18018 ft 390 kts 114°
2026-05-01 12:45 -42.06980 146.80357 16997 ft 388 kts 114°
2026-05-01 12:45 -42.08193 146.83601 16490 ft 387 kts 114°
2026-05-01 12:45 -42.09401 146.86833 15991 ft 386 kts 114°
2026-05-01 12:46 -42.10605 146.90060 15505 ft 384 kts 114°
2026-05-01 12:46 -42.11801 146.93268 15033 ft 383 kts 115°
2026-05-01 12:46 -42.12991 146.96463 14559 ft 381 kts 115°
2026-05-01 12:46 -42.14177 146.99653 14078 ft 379 kts 115°
2026-05-01 12:47 -42.15354 147.02820 13564 ft 377 kts 115°
2026-05-01 12:47 -42.16582 147.05930 13033 ft 376 kts 122°
2026-05-01 12:47 -42.18208 147.08676 12534 ft 375 kts 134°
2026-05-01 12:47 -42.20195 147.10897 12032 ft 366 kts 143°
2026-05-01 12:48 -42.22228 147.12890 11538 ft 356 kts 144°
2026-05-01 12:48 -42.24223 147.14821 11046 ft 348 kts 144°
2026-05-01 12:48 -42.26168 147.16707 10557 ft 341 kts 144°
2026-05-01 12:48 -42.28073 147.18564 10082 ft 334 kts 144°
2026-05-01 12:49 -42.29941 147.20394 9556 ft 330 kts 144°
2026-05-01 12:49 -42.31766 147.22190 9050 ft 329 kts 144°
2026-05-01 12:49 -42.33636 147.24035 8546 ft 327 kts 144°
2026-05-01 12:49 -42.35438 147.25817 8053 ft 324 kts 144°
2026-05-01 12:50 -42.37243 147.27605 7561 ft 320 kts 144°
2026-05-01 12:50 -42.39035 147.29382 7071 ft 318 kts 144°
2026-05-01 12:50 -42.40832 147.31167 6595 ft 315 kts 144°
2026-05-01 12:50 -42.42003 147.32330 6263 ft 314 kts 144°
2026-05-01 12:51 -42.44330 147.34645 5595 ft 312 kts 143°
2026-05-01 12:51 -42.46076 147.36382 5159 ft 310 kts 143°
2026-05-01 12:51 -42.49399 147.39694 5022 ft 288 kts 144°
2026-05-01 12:52 -42.50986 147.41276 5007 ft 279 kts 143°
2026-05-01 12:52 -42.53529 147.43816 4997 ft 263 kts 144°
2026-05-01 12:52 -42.54979 147.45264 5006 ft 256 kts 143°
2026-05-01 12:53 -42.57822 147.48108 5035 ft 254 kts 144°
2026-05-01 12:53 -42.59261 147.49548 5035 ft 259 kts 143°
2026-05-01 12:53 -42.60714 147.51001 5007 ft 260 kts 144°
2026-05-01 12:54 -42.62166 147.52456 4987 ft 259 kts 144°
2026-05-01 12:54 -42.65053 147.55352 4793 ft 262 kts 144°
2026-05-01 12:54 -42.66522 147.56827 4502 ft 264 kts 143°
2026-05-01 12:55 -42.69502 147.59822 4007 ft 265 kts 143°
2026-05-01 12:55 -42.70951 147.61279 3982 ft 253 kts 143°
2026-05-01 12:55 -42.72353 147.62691 4018 ft 251 kts 143°
2026-05-01 12:56 -42.73748 147.64095 3989 ft 255 kts 143°
2026-05-01 12:56 -42.75174 147.65532 3973 ft 254 kts 144°
2026-05-01 12:56 -42.76611 147.66978 3799 ft 259 kts 143°
2026-05-01 12:56 -42.78035 147.68415 3694 ft 251 kts 143°
2026-05-01 12:57 -42.79434 147.69826 3713 ft 250 kts 144°
2026-05-01 12:57 -42.82644 147.70629 3468 ft 245 kts 207°
2026-05-01 12:57 -42.84123 147.69510 3185 ft 244 kts 220°
2026-05-01 12:58 -42.85520 147.68155 2833 ft 249 kts 221°
2026-05-01 12:58 -42.86932 147.66750 2486 ft 252 kts 223°
2026-05-01 12:58 -42.88153 147.65135 2126 ft 236 kts 239°
2026-05-01 12:59 -42.89058 147.61380 1567 ft 190 kts 278°
2026-05-01 12:59 -42.88849 147.59706 1345 ft 171 kts 289°
2026-05-01 12:59 -42.87901 147.57077 999 ft 142 kts 311°
2026-05-01 13:00 -42.86553 147.55160 694 ft 134 kts 317°
2026-05-01 13:00 -42.85873 147.54250 500 ft 141 kts 316°
2026-05-01 13:01 -42.84479 147.52363 45 ft 137 kts 316°
2026-05-01 13:01 -42.83880 147.51542 21 ft 99 kts 315°
2026-05-01 13:01 -42.83481 147.50998 21 ft 7 kts 315°
2026-05-01 13:02 -42.83405 147.50896 22 ft 21 kts 315°
2026-05-01 13:07 -42.83690 147.50615 23 ft 0 kts 224°